Content
SEND FEEDBACK

Daily
Averages
Monthly
Summary
Turkey

BIRECIK, TURKEY


Home > Middle East > Turkey
Elevation: 1138 feet     Latitude: 37 00N     Longitude: 038 00E

WEATHER
 
SELECT A DAY
Number of Records: 216,033;   Date Range: 7/1/96 - 12/17/14
 
SHARE

PRINT THIS DATA

[ ← Previous Day ]
WEATHER ALMANAC - MARCH 17, 2013
[ Next Day → ]
[ °C ]   °F
Weather ElementAverageHighLow
Temperature43.9 °F51.8 °F (9:50 am)33.8 °F (11:50 pm)
Dewpoint38.7 °F44.6 °F (1:50 am)30.2 °F (11:50 pm)
Humidity81.8 %93 % (1:50 am)62 % (2:00 pm)
Barometer29.79 in29.89 in (11:50 pm)29.74 in (11:20 am)
Wind Speed8.2 mph28.8 mph (5:20 pm)
Wind Gust31.1 mph (2:20 pm)
Weather ElementAverage
Visibility6.2 mi
Wind DirectionSW (220 °)

Weather ElementTotal
Precipitation---
Heating Degree Days22.2 (Base 65)
Averaged from 53 records on March 17, 2013
WEATHER CONDITIONS BREAKOUT
WIND DIRECTION BREAKOUT
WEATHER BY HOUR - MARCH 17, 2013
[ °C ]   °F
Local TimeTemperatureDewpointHumidityBarometerVisibilityWind DirectionWind SpeedGust SpeedPrecipitationEventsConditions
12:50 AM44.6 °F39.2 °F81 %29.80 in6.2 miVariable1.2 mphMostly Cloudy
1:20 AM46.4 °F42.8 °F87 %29.80 in6.2 miSW (220°)3.5 mphMostly Cloudy
1:50 AM46.4 °F44.6 °F93 %29.80 in6.2 miSW (230°)6.9 mphMostly Cloudy
2:00 AM47.0 °F44.0 °F83 %29.78 in6.0 miSW (230°)6.9 mphPartly Cloudy
2:20 AM46.4 °F44.6 °F93 %29.77 in6.2 miSW (220°)9.2 mphMostly Cloudy
2:50 AM46.4 °F44.6 °F93 %29.77 in6.2 miSSW (210°)6.9 mphMostly Cloudy
3:20 AM46.4 °F42.8 °F87 %29.77 in6.2 miSW (230°)6.9 mphMostly Cloudy
3:36 AM46.4 °F42.8 °F87 %29.77 in6.2 miSW (230°)6.9 mphRainLight Rain Showers
3:50 AM46.4 °F42.8 °F87 %29.77 in6.2 miSW (230°)8.1 mphRainLight Rain Showers
4:20 AM44.6 °F41.0 °F87 %29.77 in6.2 miWest (260°)3.5 mphRainLight Rain Showers
4:50 AM44.6 °F41.0 °F87 %29.77 in6.2 miSW (230°)5.8 mphRainLight Rain Showers
5:20 AM42.8 °F39.2 °F87 %29.77 in6.2 miSW (220°)5.8 mphMostly Cloudy
5:50 AM42.8 °F39.2 °F87 %29.77 in6.2 miSW (220°)2.3 mphMostly Cloudy
6:20 AM42.8 °F41.0 °F93 %29.77 in6.2 miSW (220°)4.6 mphMostly Cloudy
6:50 AM44.6 °F42.8 °F93 %29.77 in6.2 miSW (230°)2.3 mphMostly Cloudy
7:20 AM46.4 °F42.8 °F87 %29.77 in6.2 miWSW (240°)3.5 mphMostly Cloudy
7:50 AM46.4 °F41.0 °F81 %29.77 in6.2 miSSW (210°)4.6 mphRainLight Rain Showers
8:00 AM46.0 °F42.0 °F80 %29.79 in6.0 miSSW (210°)4.6 mphRainLight Rain Showers
8:20 AM46.4 °F41.0 °F81 %29.77 in6.2 miWSW (250°)9.2 mphRainLight Rain Showers
8:50 AM46.4 °F41.0 °F81 %29.77 in6.2 miWSW (240°)8.1 mphMostly Cloudy
9:20 AM48.2 °F42.8 °F82 %29.77 in6.2 miWSW (250°)6.9 mphRainLight Rain Showers
9:50 AM51.8 °F42.8 °F71 %29.77 in6.2 miSSW (200°)11.5 mphRainLight Rain Showers
10:20 AM48.2 °F39.2 °F71 %29.77 in6.2 miWNW (290°)16.1 mphRainLight Rain Showers
10:50 AM44.6 °F37.4 °F76 %29.77 in6.2 miWest (280°)15.0 mphRainLight Rain Showers
11:20 AM50.0 °F42.8 °F76 %29.74 in6.2 miWest (280°)6.9 mphRainLight Rain Showers
11:50 AM48.2 °F41.0 °F76 %29.77 in6.2 miWNW (290°)18.4 mphRainLight Rain Showers
12:20 PM50.0 °F41.0 °F71 %29.74 in6.2 miWNW (290°)18.4 mphMostly Cloudy
12:50 PM46.4 °F39.2 °F76 %29.77 in6.2 miWest (270°)13.8 mphMostly Cloudy
1:20 PM44.6 °F37.4 °F76 %29.77 in6.2 miWNW (290°)17.3 mphMostly Cloudy
1:50 PM46.4 °F37.4 °F71 %29.77 in6.2 miVariable1.2 mphMostly Cloudy
2:00 PM47.0 °F38.0 °F62 %29.78 in6.0 miSW (230°)1.2 mphPartly Cloudy
2:09 PM48.2 °F35.6 °F62 %29.77 in6.2 miWest (270°)9.2 mphMostly Cloudy
2:20 PM44.6 °F37.4 °F76 %29.77 in6.2 miWest (270°)11.5 mph31.1 mphRain-ThunderstormLight Thunderstorms and Rain
2:50 PM44.6 °F35.6 °F71 %29.77 in6.2 miNW (310°)18.4 mphMostly Cloudy
3:20 PM44.6 °F37.4 °F76 %29.77 in6.2 miVariable2.3 mphMostly Cloudy
3:50 PM44.6 °F35.6 °F71 %29.77 in6.2 miVariable2.3 mphMostly Cloudy
4:20 PM46.4 °F39.2 °F76 %29.77 in6.2 miSSW (210°)6.9 mphMostly Cloudy
4:50 PM46.4 °F37.4 °F71 %29.77 in6.2 miWSW (240°)5.8 mphMostly Cloudy
5:20 PM42.8 °F35.6 °F76 %29.80 in6.2 miWest (280°)28.8 mphMostly Cloudy
5:50 PM41.0 °F35.6 °F81 %29.83 in6.2 miWest (270°)26.5 mphRainLight Rain Showers
6:20 PM39.2 °F35.6 °F87 %29.83 in6.2 miWSW (240°)11.5 mphMostly Cloudy
6:50 PM39.2 °F35.6 °F87 %29.80 in6.2 miWSW (240°)8.1 mphMostly Cloudy
7:20 PM39.2 °F35.6 °F87 %29.83 in6.2 miWSW (250°)4.6 mphMostly Cloudy
7:50 PM41.0 °F35.6 °F81 %29.83 in6.2 miWest (270°)6.9 mphMostly Cloudy
8:00 PM40.0 °F36.0 °F82 %29.87 in6.0 miWest (270°)6.9 mphPartly Cloudy
8:20 PM37.4 °F35.6 °F93 %29.83 in6.2 miWest (260°)9.2 mphMostly Cloudy
8:50 PM37.4 °F35.6 °F93 %29.83 in6.2 miWest (260°)8.1 mphScattered Clouds
9:20 PM37.4 °F33.8 °F87 %29.86 in6.2 miVariable1.2 mphPartly Cloudy
9:50 PM37.4 °F33.8 °F87 %29.86 in6.2 miWest (270°)8.1 mphPartly Cloudy
10:20 PM35.6 °F32.0 °F87 %29.86 in6.2 miSW (230°)4.6 mphPartly Cloudy
10:50 PM35.6 °F32.0 °F87 %29.86 inVariable2.3 mphClear
11:20 PM35.6 °F32.0 °F87 %29.86 inWest (260°)8.1 mphClear
11:50 PM33.8 °F30.2 °F87 %29.89 inWest (260°)6.9 mphClear
Hourly data recorded from LTAJ, located miles away from Birecik, Turkey







STORIES FROM OUR PARTNERS